sat.trackr.live / text

‹ back to catalog

BEIDOU-2 IGSO-4 (C09)

NORAD 37763 · 2011-038A

PAYLOAD ACTIVE UNKNOWN

§ Identity

Operator
Country
PRC
Launch date
2011-07-26
Launch site
XICLF
Launch vehicle
Mass (kg)
RCS (m²)
16.30

Purposes: comms, nav

External: N2YO · Heavens-Above · Gunter

§ Orbital elements

Epoch: 2026-09-19T16:05:35.266848Z

Period
1,436.16 min
Inclination
54.6028°
Eccentricity
0.0160394
Mean motion
1.00267304 rev/d
Perigee alt
35,111.5 km
Apogee alt
36,464.2 km
Semi-major
42,166.0 km
B*
0.0000e+0
RAAN
164.8329°
Arg perigee
230.8500°
Mean anomaly
298.4616°
Rev number
5,559

§ Raw data

BEIDOU-2 IGSO-4 (C09)1 37763U 11038A   26262.67054707 -.00000111  00000+0  00000+0 0  99952 37763  54.6028 164.8329 0160394 230.8500 298.4616  1.00267304 55590

JSON: /api/v1/satellites/37763 · /tle

For live sub-satellite position, see the globe view (requires WebGL).

§ Visibility from observer

Set your observer location to see the next 7 days of passes ≥ 10°. The values pass through the URL so the page stays shareable.

No JS? Fill the form by hand. The geolocation button needs JavaScript.